Location: Newark
(50.0336°N, 22.0047°E)
Time: 06:24:08
(UTC+00:00)

Envisat - Pass Details

Date: 02 February 2020
Orbit: 764 x 766 km, 98.1° (Epoch: 27 February)

Event Time Altitude Azimuth Distance (km) Brightness Sun altitude
Rises 04:32:46 0° 21° (NNE) 3,245 6.4 -15.0°
Reaches altitude 10° 04:35:18 10° 31° (NNE) 2,313 5.8 -14.6°
Maximum altitude 04:39:54 33° 95° (E) 1,264 4.9 -13.8°
Drops below altitude 10° 04:44:27 10° 159° (SSE) 2,297 5.9 -13.1°
Sets 04:46:57 0° 169° (S) 3,218 6.5 -12.7°
